SL-14 DEB

Satellite information

Favourite Embed

Satellite Type and Status

DEBRISIN ORBIT

Key statistics

Satellite SL-14 DEB at a glance.

Uptime

13838

Days in orbit

Revolutions

≈ 14.1

Per day

Orbit

LEO

Low Earth Orbit

Inclination

82.5

Latest

Satellite identification and parameters

Extended collection of information and parameters for SL-14 DEB.

Object identification

Identified? True

Debris? True

Object name: SL-14 DEB

International designator: 1987-068AR

Object number (NORAD): 25214

Object ID (CCSDS): 25214

Country: COMMONWEALTH OF INDEPENDENT STATES (CIS)

Current information (Y/N): Y

RCS size: SMALL

Orbital parameters

Period: 102.096 minutes

Inclination: 82.543 deg

SMA: 7236.017 km

Apoapsis: 862.066 km

Periapsis: 853.698 km

RAAN: 30.9248 deg

Eccentricy: 0.0005782

Argument of periapsis: 91.2152 deg

Mean anomaly: 301.1735 deg

Mean motion: 14.10435976 rev/day

Mean motion (dot): 0.00001507 rev/day2

B* drag term: 0.0008389 1/REarth

Two-line elements (TLE)

Creation date: July 6, 2025, 6:05 p.m.

Reference frame: TEME

Reference center: EARTH

Epoch: July 6, 2025, 1:38 p.m. UTC

TLE line 0: 0 SL-14 DEB

TLE line 1: 1 25214U 87068AR 25187.56873274 .00001507 00000-0 83890-3 0 9992

TLE line 2: 2 25214 82.5430 30.9248 0005782 91.2152 301.1735 14.10435976396116

Live tracking on map

Real-time ground track for satellite SL-14 DEB.

In-orbit conjunctions

A list of the most updated potential collisions computed for object SL-14 DEB.

Target Orbit TCA Probability of collision Miss distance Type
COSMOS 2251 DEB LEO 2024-12-20 12:59:58 0.0001018806 333.0 (m) DEBRIS
FENGYUN 1C DEB SSO 2024-11-10 14:09:51 0.0001734537 876.0 (m) DEBRIS
FENGYUN 1C DEB SSO 2024-11-10 01:18:34 0.0002870054 89.0 (m) DEBRIS

Associated space launch

Second generation soviet meteorological satellite

SL-14 DEB was lifted into orbit during the mission ‘Tsiklon-3 | Meteor-2 16’, on board a Tsiklon-3 space rocket.

The launch took place on Aug. 18, 1987, 2:27 a.m. from 32/1.

For more information about the launch, click the button.

Launch to space Tsiklon-3 | Meteor-2 16
Tsiklon-3 | Meteor-2 16

Agency: N/A

Status: Launch Successful

Launch date: Aug. 18, 1987, 2:27 a.m. UTC

Rocket: Tsiklon-3

Launch pad: 32/1

Location: Plesetsk Cosmodrome, Russian Federation

...

Latest news about this satellite

There are no fresh news available about this satellite. Check back as we update our databases every day.


Newsletter sign-up

Weekly statistics, charts and insights to help you stay on top of the space industry.